Regional Weather Roundup
Issued by NWS

Home | Current Version | Previous Version | Graphics & Text | Print | Product List | Glossary On
Versions: 1 2 3 4 5 6 7 8 9 10 11 12 13 14 15 16 17 18 19 20 21 22 23 24 25 26 27 28 29 30 31 32 33 34 35 36 37 38 39 40 41 42 43 44 45 46 47 48 49 50
000
ASUS45 KPSR 050000
RWRAZ

ARIZONA HOURLY REGIONAL WEATHER ROUNDUP
NATIONAL WEATHER SERVICE PHOENIX AZ
500 PM MST SAT JUL 04 2015

NOTE: FAIR INDICATES FEW OR NO CLOUDS BELOW 12,000 FEET WITH NO
SIGNIFICANT WEATHER AND/OR OBSTRUCTIONS TO VISIBILITY.

AZZ001>003-036-050100-
NORTHWEST ARIZONA

CITY           SKY/WX    TMP DP  RH WIND       PRES   REMARKS
KINGMAN        CLOUDY    90  49  24 NW7       29.94F
6HR MIN TEMP:  86; 6HR MAX TEMP:  94; 6HR PCP: TRACE;

$$

AZZ004>008-015-016-018-050100-
NORTH CENTRAL ARIZONA

CITY           SKY/WX    TMP DP  RH WIND       PRES   REMARKS
GRAND CANYON   PTSUNNY   79  48  33 W12       30.17S
6HR MIN TEMP:  72; 6HR MAX TEMP:  80;

WILLIAMS       CLOUDY    73  54  49 SW6G15    30.26R
PRESCOTT       PTSUNNY   85  52  32 W14       30.06F
6HR MIN TEMP:  78; 6HR MAX TEMP:  86; 6HR PCP: TRACE;

FLAGSTAFF      NOT AVBL
PAYSON         PTSUNNY   86  52  30 VRB7G16   30.07S
PAGE           PTSUNNY   90  51  26 VRB6      29.94F
6HR MIN TEMP:  85; 6HR MAX TEMP:  92;

$$

AZZ009>014-017-050100-
NORTHEAST ARIZONA

CITY           SKY/WX    TMP DP  RH WIND       PRES   REMARKS
WINSLOW        NOT AVBL
SAINT JOHNS    LGT RAIN  70  56  61 SW23G29   30.15R
6HR MIN TEMP:  67; 6HR MAX TEMP:  77; 6HR PCP:  0.01;

WINDOW ROCK    CLOUDY    73  55  53 N12       30.21R
6HR MIN TEMP:  66; 6HR MAX TEMP:  84; 6HR PCP:  0.04;

SHOW LOW       LGT RAIN  59  57  94 SW5       30.24S
$$

AZZ023-050100-
GREATER PHOENIX AREA

CITY           SKY/WX    TMP DP  RH WIND       PRES   REMARKS
PHOENIX        PTSUNNY  105  54  18 W23G29    29.73F HX 103
6HR MIN TEMP:  97; 6HR MAX TEMP: 106;

GLENDALE       MOSUNNY  104  54  18 S15       29.75F HX 102
LUKE AFB       MOSUNNY  102  57  22 SW16G22   29.73S HX 101
DEER VALLEY    SUNNY    102  53  19 SW17      29.75F HX 100
6HR MIN TEMP:  95; 6HR MAX TEMP: 104;

SCOTTSDALE     SUNNY    102  53  19 W10G20    29.78F HX 100
6HR MIN TEMP:  95; 6HR MAX TEMP: 103;

MESA-GATEWAY   CLOUDY   102  55  21 W9        29.78F HX 101
CHANDLER       PTSUNNY  104  54  18 SW12G17   29.75F HX 102
$$

AZZ027-028-050100-
SOUTHWEST MARICOPA COUNTY AND PINAL COUNTY

CITY           SKY/WX    TMP DP  RH WIND       PRES   REMARKS
CASA GRANDE    CLOUDY    99  55  23 W7        29.78S
6HR MIN TEMP:  97; 6HR MAX TEMP: 102;

GILA BEND      FAIR     103  54  20 W9        29.73F HX 101
6HR MIN TEMP:  91; 6HR MAX TEMP: 103;

$$

AZZ503-504-507>509-050100-
SOUTHEAST ARIZONA

CITY           SKY/WX    TMP DP  RH WIND       PRES   REMARKS
TUCSON         CLOUDY    92  54  27 W9        29.91F
6HR MIN TEMP:  84; 6HR MAX TEMP:  94; 6HR PCP: TRACE;

DAVIS-MONTHAN  CLOUDY    91  55  28 NW10      29.90S
6HR MIN TEMP:  87; 6HR MAX TEMP:  93; 6HR PCP: TRACE;

RYAN FIELD     SUNNY     93  57  29 W6        29.89F
NOGALES        PTSUNNY   85  57  38 W7        30.00F
6HR MIN TEMP:  76; 6HR MAX TEMP:  87; 6HR PCP: TRACE;

SIERRA VISTA   MOSUNNY   85  54  33 NW12      30.05S
6HR MIN TEMP:  75; 6HR MAX TEMP:  87;

SAFFORD        PTSUNNY   91  57  31 W18       29.90R
6HR MIN TEMP:  84; 6HR MAX TEMP:  96;

$$

AZZ020-021-025-026-031-050100-
SOUTHWEST ARIZONA

CITY           SKY/WX    TMP DP  RH WIND       PRES   REMARKS
YUMA           MOSUNNY  107  55  18 S15       29.67F HX 106
6HR MIN TEMP: 102; 6HR MAX TEMP: 109;

$$

CAZ031-033-041-043-047-048-061-050100-
SOUTHERN CALIFORNIA

CITY           SKY/WX    TMP DP  RH WIND       PRES   REMARKS
DOWNTOWN L.A.  SUNNY     74  60  61 VRB3      29.85F
6HR MIN TEMP:  73; 6HR MAX TEMP:  79;

L.A. AIRPORT   MOSUNNY   69  60  73 W15       29.87F
6HR MIN TEMP:  68; 6HR MAX TEMP:  72;

SAN DIEGO      MOSUNNY   72  59  63 W13G20    29.90F
6HR MIN TEMP:  68; 6HR MAX TEMP:  74;

BURBANK        SUNNY     79  59  50 S8        29.84F
6HR MIN TEMP:  75; 6HR MAX TEMP:  82;

ONTARIO        MOSUNNY   84  57  39 SW15G21   29.84F
6HR MIN TEMP:  79; 6HR MAX TEMP:  88;

RIVERSIDE      SUNNY     84  56  38 W14G20    29.84S
6HR MIN TEMP:  78; 6HR MAX TEMP:  89;

PALM SPRINGS   SUNNY    108  55  17 NW23      29.68F HX 107
6HR MIN TEMP: 104; 6HR MAX TEMP: 111;

EL CENTRO NAS  SUNNY    109  54  16 SE15      29.64F HX 107
6HR MIN TEMP: 101; 6HR MAX TEMP: 111; 6HR PCP: TRACE;

IMPERIAL       SUNNY    109  53  15 SE21      29.62F HX 107
6HR MIN TEMP: 103; 6HR MAX TEMP: 110;

BLYTHE         SUNNY    108  57  18 S21       29.67F HX 108
6HR MIN TEMP: 102; 6HR MAX TEMP: 109;

$$

NVZ020-UTZ003-050100-
SOUTHERN NEVADA-UTAH

CITY           SKY/WX    TMP DP  RH WIND       PRES   REMARKS
LAS VEGAS      NOT AVBL
SALT LAKE CITY PTSUNNY   96  48  19 NW10      29.84F
6HR MIN TEMP:  93; 6HR MAX TEMP:  99;

$$

NMZ009-TXZ055-050100-
NEW MEXICO-WEST TEXAS

CITY           SKY/WX    TMP DP  RH WIND       PRES   REMARKS
ALBUQUERQUE    CLOUDY    76  59  55 SE9       30.08R
6HR MIN TEMP:  75; 6HR MAX TEMP:  91; 6HR PCP:  0.02;

EL PASO        PTSUNNY   95  48  20 NE10      29.91S
6HR MIN TEMP:  87; 6HR MAX TEMP:  96;

$$


........................KEY........................
SKY/WX - SKY CONDITION/WEATHER
TMP    - TEMPERATURE IN FAHRENHEIT
DP     - DEW POINT IN FAHRENHEIT
RH     - RELATIVE HUMIDITY IN PERCENT
WIND   - DIRECTION AND SPEED IN MILES PER HOUR (MPH)
VRB    - VARIABLE WIND DIRECTION
PRES   - MEAN SEA LEVEL PRESSURE IN INCHES OF MERCURY
         F - FALLING PRESSURE   R - RISING PRESSURE
         S - STEADY PRESSURE
VSB    - VISIBILITY IN MILES
HX     - HEAT INDEX IN FAHRENHEIT
WCI    - WIND CHILL INDEX IN FAHRENHEIT
TC     - TEMPERATURE IN CELSIUS WHICH IS ALSO KNOWN AS
         TEMPERATURE IN CENTIGRADE
AFB    - AIR FORCE BASE
         LUKE AFB IS LUKE AIR FORCE BASE
         DAVIS-MONTHAN IS DAVIS-MONTHAN AIR FORCE BASE
NAS    - NAVAL AIR STATION
         EL CENTRO NAS IS EL CENTRO NAVAL AIR STATION
N/A    - NOT AVAILABLE




USA.gov is the U.S. government's official web portal to all federal, state and local government web resources and services.